Location: Unspecified
(29.9680°N, 0.0000°E)
Time: 03:18:52
(UTC+00:00)

Explorer 7 - Pass Details

Date: 25 June 2019
Orbit: 485 x 680 km, 50.3° (Epoch: 13 October)

Event Time Altitude Azimuth Distance (km) Brightness Sun altitude
Rises 07:09:43 0° 246° (WSW) 2,639 9.7 25.3°
Reaches altitude 10° 07:12:00 10° 255° (WSW) 1,783 8.9 25.8°
Maximum altitude 07:15:45 35° 322° (NW) 915 8.0 26.6°
Drops below altitude 10° 07:19:43 10° 29° (NNE) 1,901 10.3 27.4°
Sets 07:22:14 0° 38° (NE) 2,842 11.2 28.0°
